| time (UTC) | temp F | wind direction | speed knots | gust knots | rain 1hr in | rain 24hr in | rain mn in | humidity % | barometer mb |
| 20260504223704 | 65 | 230 | 7.0 | 14.8 | 0.00 | 0.00 | 0.00 | 48 | 1005.5 |
| 20260504223204 | 65 | 230 | 6.1 | 12.2 | 0.00 | 0.00 | 0.00 | 47 | 1005.5 |
| 20260504222703 | 65 | 230 | 6.1 | 13.0 | 0.00 | 0.00 | 0.00 | 46 | 1005.5 |
| 20260504222203 | 66 | 230 | 5.2 | 13.0 | 0.00 | 0.00 | 0.00 | 45 | 1005.5 |
| 20260504221704 | 66 | 230 | 5.2 | 11.3 | 0.00 | 0.00 | 0.00 | 45 | 1005.5 |
| 20260504220704 | 67 | 230 | 7.8 | 17.4 | 0.00 | 0.00 | 0.00 | 42 | 1005.4 |
| 20260504220203 | 68 | 230 | 7.0 | 13.9 | 0.00 | 0.00 | 0.00 | 40 | 1005.4 |
| 20260504215704 | 68 | 230 | 5.2 | 15.6 | 0.00 | 0.00 | 0.00 | 40 | 1005.4 |
| 20260504214704 | 69 | 230 | 7.8 | 14.8 | 0.00 | 0.00 | 0.00 | 38 | 1005.3 |
| 20260504214203 | 70 | 230 | 5.2 | 10.4 | 0.00 | 0.00 | 0.00 | 38 | 1005.4 |
| 20260504213703 | 70 | 230 | 3.5 | 13.0 | 0.00 | 0.00 | 0.00 | 37 | 1005.3 |
| 20260504212703 | 69 | 230 | 7.0 | 13.0 | 0.00 | 0.00 | 0.00 | 38 | 1005.3 |
| 20260504212203 | 69 | 230 | 4.3 | 7.8 | 0.00 | 0.00 | 0.00 | 38 | 1005.3 |
| 20260504211703 | 69 | 230 | 4.3 | 10.4 | 0.00 | 0.00 | 0.00 | 39 | 1005.3 |
| 20260504211204 | 68 | 230 | 5.2 | 12.2 | 0.00 | 0.00 | 0.00 | 38 | 1005.3 |
| 20260504210704 | 68 | 230 | 5.2 | 14.8 | 0.00 | 0.00 | 0.00 | 38 | 1005.3 |
| 20260504205703 | 69 | 240 | 7.8 | 14.8 | 0.00 | 0.00 | 0.00 | 37 | 1005.3 |
| 20260504204703 | 69 | 240 | 5.2 | 13.9 | 0.00 | 0.00 | 0.00 | 37 | 1005.3 |
| 20260504204203 | 69 | 240 | 6.1 | 12.2 | 0.00 | 0.00 | 0.00 | 36 | 1005.3 |
| 20260504203704 | 69 | 240 | 6.1 | 13.0 | 0.00 | 0.00 | 0.00 | 37 | 1005.3 |
| 20260504203204 | 69 | 240 | 5.2 | 12.2 | 0.00 | 0.00 | 0.00 | 37 | 1005.3 |
| 20260504202703 | 70 | 240 | 6.1 | 13.9 | 0.00 | 0.00 | 0.00 | 38 | 1005.3 |
| 20260504201704 | 69 | 240 | 7.8 | 13.0 | 0.00 | 0.00 | 0.00 | 37 | 1005.4 |
| 20260504201204 | 69 | 240 | 4.3 | 14.8 | 0.00 | 0.00 | 0.00 | 38 | 1005.4 |
| 20260504200704 | 69 | 240 | 4.3 | 10.4 | 0.00 | 0.00 | 0.00 | 37 | 1005.4 |
| 20260504200204 | 69 | 240 | 4.3 | 10.4 | 0.00 | 0.00 | 0.00 | 37 | 1005.5 |
| 20260504195703 | 69 | 230 | 5.2 | 12.2 | 0.00 | 0.00 | 0.00 | 38 | 1005.5 |
| 20260504195204 | 68 | 230 | 3.5 | 11.3 | 0.00 | 0.00 | 0.00 | 39 | 1005.6 |
| 20260504194703 | 67 | 230 | 6.1 | 11.3 | 0.00 | 0.00 | 0.00 | 39 | 1005.7 |
| 20260504194204 | 68 | 230 | 5.2 | 13.0 | 0.00 | 0.00 | 0.00 | 37 | 1005.8 |
| 20260504193703 | 68 | 230 | 7.8 | 13.0 | 0.00 | 0.00 | 0.00 | 37 | 1005.6 |
| 20260504193204 | 68 | 230 | 6.1 | 10.4 | 0.00 | 0.00 | 0.00 | 37 | 1005.7 |
| 20260504192703 | 69 | 230 | 6.1 | 14.8 | 0.00 | 0.00 | 0.00 | 38 | 1005.6 |
| 20260504192204 | 69 | 230 | 6.1 | 11.3 | 0.00 | 0.00 | 0.00 | 38 | 1005.6 |
| 20260504191703 | 69 | 230 | 5.2 | 10.4 | 0.00 | 0.00 | 0.00 | 36 | 1005.6 |
| 20260504191204 | 69 | 230 | 5.2 | 11.3 | 0.00 | 0.00 | 0.00 | 37 | 1005.6 |
| 20260504190704 | 68 | 230 | 5.2 | 11.3 | 0.00 | 0.00 | 0.00 | 36 | 1005.7 |
| 20260504190203 | 68 | 230 | 4.3 | 8.7 | 0.00 | 0.00 | 0.00 | 38 | 1005.7 |
| 20260504185704 | 68 | 250 | 4.3 | 12.2 | 0.00 | 0.00 | 0.00 | 36 | 1005.7 |
| 20260504185204 | 68 | 250 | 7.8 | 12.2 | 0.00 | 0.00 | 0.00 | 36 | 1005.8 |
| 20260504184204 | 68 | 250 | 6.1 | 10.4 | 0.00 | 0.00 | 0.00 | 36 | 1006.0 |
| 20260504183703 | 68 | 250 | 5.2 | 15.6 | 0.00 | 0.00 | 0.00 | 37 | 1006.1 |
| 20260504183204 | 68 | 250 | 7.8 | 15.6 | 0.00 | 0.00 | 0.00 | 35 | 1006.1 |
| 20260504182704 | 68 | 250 | 7.0 | 18.2 | 0.00 | 0.00 | 0.00 | 37 | 1006.1 |
| 20260504182204 | 68 | 250 | 5.2 | 13.9 | 0.00 | 0.00 | 0.00 | 37 | 1006.1 |
| 20260504181204 | 68 | 250 | 6.1 | 12.2 | 0.00 | 0.00 | 0.00 | 35 | 1006.2 |
| 20260504180704 | 68 | 250 | 4.3 | 12.2 | 0.00 | 0.00 | 0.00 | 36 | 1006.2 |
| 20260504180204 | 67 | 250 | 6.1 | 13.9 | 0.00 | 0.00 | 0.00 | 36 | 1006.3 |
| 20260504175703 | 67 | 210 | 4.3 | 10.4 | 0.00 | 0.00 | 0.00 | 36 | 1006.3 |
| 20260504175204 | 67 | 210 | 5.2 | 11.3 | 0.00 | 0.00 | 0.00 | 36 | 1006.4 |
| 20260504173704 | 67 | 210 | 7.8 | 13.9 | 0.00 | 0.00 | 0.00 | 37 | 1006.6 |
| 20260504173203 | 67 | 210 | 6.1 | 17.4 | 0.00 | 0.00 | 0.00 | 40 | 1006.7 |
| 20260504172704 | 66 | 210 | 7.8 | 17.4 | 0.00 | 0.00 | 0.00 | 37 | 1006.7 |
| 20260504172203 | 66 | 210 | 7.0 | 15.6 | 0.00 | 0.00 | 0.00 | 37 | 1006.8 |
| 20260504171704 | 66 | 210 | 7.0 | 14.8 | 0.00 | 0.00 | 0.00 | 40 | 1006.7 |
| 20260504170703 | 66 | 210 | 7.8 | 14.8 | 0.00 | 0.00 | 0.00 | 37 | 1006.5 |
| 20260504170204 | 66 | 210 | 6.1 | 14.8 | 0.00 | 0.00 | 0.00 | 38 | 1006.7 |
| 20260504150703 | 62 | 270 | 6.1 | 12.2 | 0.00 | 0.00 | 0.00 | 44 | 1008.2 |
| 20260504141204 | 61 | 230 | 6.1 | 13.9 | 0.00 | 0.00 | 0.00 | 44 | 1008.3 |
| 20260504140703 | 61 | 230 | 4.3 | 11.3 | 0.00 | 0.00 | 0.00 | 45 | 1008.4 |
| 20260504140204 | 60 | 230 | 7.8 | 17.4 | 0.00 | 0.00 | 0.00 | 46 | 1008.4 |
| 20260504130704 | 56 | 220 | 2.6 | 12.2 | 0.00 | 0.00 | 0.00 | 52 | 1009.2 |
| 20260504130204 | 56 | 221 | 2.6 | 5.2 | 0.00 | 0.00 | 0.00 | 51 | 1009.3 |
| 20260504120203 | 50 | 250 | 1.7 | 7.8 | 0.00 | 0.00 | 0.00 | 61 | 1009.4 |
| 20260504110704 | 46 | 220 | 2.6 | 8.7 | 0.00 | 0.00 | 0.00 | 63 | 1009.4 |
| 20260504110204 | 45 | 220 | 2.6 | 8.7 | 0.00 | 0.00 | 0.00 | 64 | 1009.3 |
| 20260504100204 | 42 | 230 | 1.7 | 2.6 | 0.00 | 0.00 | 0.00 | 69 | 1009.4 |
| 20260504081204 | 44 | 230 | 2.6 | 5.2 | 0.00 | 0.00 | 0.00 | 63 | 1009.0 |
| 20260504080704 | 44 | 230 | 1.7 | 4.3 | 0.00 | 0.00 | 0.00 | 64 | 1009.1 |
| 20260504080203 | 44 | 230 | 0.9 | 4.3 | 0.00 | 0.00 | 0.00 | 63 | 1009.0 |
| 20260504060204 | 44 | 250 | 0.9 | 1.7 | 0.00 | 0.00 | 0.00 | 64 | 1009.2 |
| 20260504050704 | 44 | 250 | 1.7 | 2.6 | 0.00 | 0.00 | 0.00 | 63 | 1009.2 |
| 20260504050204 | 44 | 250 | 1.7 | 2.6 | 0.00 | 0.00 | 0.00 | 64 | 1009.2 |
| 20260504045704 | 43 | 250 | 0.9 | 2.6 | 0.00 | 0.00 | 0.00 | 50 | 1009.2 |
| 20260504045204 | 43 | 250 | 0.9 | 4.3 | 0.00 | 0.00 | 0.00 | 63 | 1009.2 |
| 20260504044703 | 43 | 250 | 1.7 | 2.6 | 0.00 | 0.00 | 0.00 | 65 | 1009.2 |
| 20260504043704 | 43 | 250 | 1.7 | 4.3 | 0.00 | 0.00 | 0.00 | 63 | 1009.3 |
| 20260504043203 | 43 | 250 | 1.7 | 2.6 | 0.00 | 0.00 | 0.00 | 65 | 1009.3 |
| 20260504042704 | 43 | 250 | 0.0 | 1.7 | 0.00 | 0.00 | 0.00 | 64 | 1009.2 |
| 20260504042204 | 43 | 250 | 0.9 | 2.6 | 0.00 | 0.00 | 0.00 | 63 | 1009.3 |
| 20260504041204 | 43 | 250 | 0.9 | 2.6 | 0.00 | 0.00 | 0.00 | 61 | 1009.2 |
| 20260504040703 | 43 | 250 | 0.9 | 1.7 | 0.00 | 0.00 | 0.00 | 62 | 1009.1 |
| 20260504040204 | 42 | 250 | 0.9 | 1.7 | 0.00 | 0.00 | 0.00 | 50 | 1009.0 |
| 20260504035704 | 42 | 260 | 1.7 | 2.6 | 0.00 | 0.00 | 0.00 | 61 | 1009.1 |
| 20260504035204 | 42 | 260 | 1.7 | 2.6 | 0.00 | 0.00 | 0.00 | 60 | 1009.1 |
| 20260504034704 | 43 | 260 | 0.9 | 2.6 | 0.00 | 0.00 | 0.00 | 59 | 1009.0 |
| 20260504034204 | 43 | 260 | 0.9 | 1.7 | 0.00 | 0.00 | 0.00 | 58 | 1009.0 |
| 20260504033704 | 43 | 260 | 0.9 | 1.7 | 0.00 | 0.00 | 0.00 | 57 | 1008.8 |
| 20260504033203 | 43 | 260 | 0.9 | 2.6 | 0.00 | 0.00 | 0.00 | 58 | 1008.8 |
| 20260504032704 | 43 | 260 | 1.7 | 2.6 | 0.00 | 0.00 | 0.00 | 58 | 1008.8 |
| 20260504032204 | 43 | 260 | 1.7 | 2.6 | 0.00 | 0.00 | 0.00 | 58 | 1008.8 |
| 20260504031704 | 43 | 260 | 1.7 | 2.6 | 0.00 | 0.00 | 0.00 | 58 | 1008.7 |
| 20260504031203 | 43 | 260 | 1.7 | 2.6 | 0.00 | 0.00 | 0.00 | 59 | 1008.8 |
| 20260504030704 | 43 | 260 | 1.7 | 2.6 | 0.00 | 0.00 | 0.00 | 58 | 1008.7 |
| 20260504030203 | 43 | 260 | 1.7 | 2.6 | 0.00 | 0.00 | 0.00 | 45 | 1008.6 |
| 20260504025704 | 44 | 240 | 1.7 | 2.6 | 0.00 | 0.00 | 0.00 | 56 | 1008.6 |
| 20260504025203 | 44 | 240 | 1.7 | 2.6 | 0.00 | 0.00 | 0.00 | 55 | 1008.5 |
| 20260504024203 | 44 | 240 | 1.7 | 2.6 | 0.00 | 0.00 | 0.00 | 53 | 1008.4 |
| 20260504023703 | 44 | 240 | 1.7 | 2.6 | 0.00 | 0.00 | 0.00 | 53 | 1008.4 |
| 20260504023204 | 44 | 240 | 1.7 | 2.6 | 0.00 | 0.00 | 0.00 | 54 | 1008.4 |
| 20260504022704 | 44 | 240 | 1.7 | 2.6 | 0.00 | 0.00 | 0.00 | 54 | 1008.3 |
| 20260504022204 | 44 | 240 | 1.7 | 2.6 | 0.00 | 0.00 | 0.00 | 55 | 1008.3 |
| 20260504021704 | 44 | 240 | 1.7 | 2.6 | 0.00 | 0.00 | 0.00 | 57 | 1008.2 |
| 20260504021203 | 44 | 240 | 1.7 | 2.6 | 0.00 | 0.00 | 0.00 | 57 | 1008.2 |
| 20260504020704 | 44 | 240 | 1.7 | 2.6 | 0.00 | 0.00 | 0.00 | 57 | 1008.1 |
| 20260504020204 | 44 | 240 | 1.7 | 2.6 | 0.00 | 0.00 | 0.00 | 57 | 1008.1 |
| 20260504015704 | 44 | 230 | 1.7 | 2.6 | 0.00 | 0.00 | 0.00 | 57 | 1008.1 |
| 20260504015203 | 44 | 230 | 1.7 | 2.6 | 0.00 | 0.00 | 0.00 | 58 | 1008.0 |
| 20260504014203 | 44 | 230 | 1.7 | 2.6 | 0.00 | 0.00 | 0.00 | 58 | 1008.0 |
| 20260504013704 | 44 | 230 | 1.7 | 2.6 | 0.00 | 0.00 | 0.00 | 57 | 1008.0 |
| 20260504013204 | 44 | 230 | 1.7 | 2.6 | 0.00 | 0.00 | 0.00 | 57 | 1008.0 |
| 20260504012704 | 44 | 230 | 0.9 | 2.6 | 0.00 | 0.00 | 0.00 | 56 | 1008.0 |
| 20260504011704 | 45 | 230 | 0.9 | 1.7 | 0.00 | 0.00 | 0.00 | 54 | 1007.9 |
| 20260504010704 | 45 | 230 | 1.7 | 2.6 | 0.00 | 0.00 | 0.00 | 54 | 1007.9 |
| 20260504010203 | 44 | 231 | 1.7 | 1.7 | 0.00 | 0.00 | 0.00 | 55 | 1007.8 |
| 20260504005704 | 44 | 270 | 0.9 | 1.7 | 0.00 | 0.00 | 0.00 | 56 | 1007.8 |
| 20260504005203 | 44 | 270 | 0.9 | 2.6 | 0.00 | 0.00 | 0.00 | 56 | 1007.7 |
| 20260504004704 | 44 | 270 | 0.0 | 0.0 | 0.00 | 0.00 | 0.00 | 57 | 1007.6 |
| 20260504004204 | 44 | 270 | 0.0 | 0.0 | 0.00 | 0.00 | 0.00 | 55 | 1007.7 |
| 20260504003704 | 45 | 270 | 0.0 | 0.0 | 0.00 | 0.00 | 0.00 | 55 | 1007.5 |
| 20260504003204 | 46 | 270 | 0.0 | 0.9 | 0.00 | 0.00 | 0.00 | 50 | 1007.6 |
| 20260504002704 | 46 | 270 | 0.0 | 0.9 | 0.00 | 0.00 | 0.00 | 52 | 1007.4 |
| 20260504002204 | 47 | 270 | 0.0 | 0.0 | 0.00 | 0.00 | 0.00 | 51 | 1007.4 |
| 20260504001703 | 47 | 270 | 0.0 | 0.9 | 0.00 | 0.00 | 0.00 | 50 | 1007.3 |
| 20260504001204 | 47 | 270 | 0.9 | 1.7 | 0.00 | 0.00 | 0.00 | 49 | 1007.2 |
| 20260504000704 | 48 | 270 | 0.9 | 1.7 | 0.00 | 0.00 | 0.00 | 47 | 1007.2 |
| 20260504000204 | 48 | 270 | 0.9 | 1.7 | 0.00 | 0.00 | 0.00 | 47 | 1007.2 |
| 20260503235704 | 48 | 300 | 0.9 | 2.6 | 0.00 | 0.00 | 0.00 | 46 | 1007.1 |
| 20260503235203 | 49 | 300 | 0.9 | 2.6 | 0.00 | 0.00 | 0.00 | 46 | 1007.1 |
| 20260503234704 | 49 | 300 | 0.9 | 5.2 | 0.00 | 0.00 | 0.00 | 45 | 1007.2 |
| 20260503234204 | 49 | 300 | 1.7 | 5.2 | 0.00 | 0.00 | 0.00 | 46 | 1007.1 |
| 20260503233703 | 49 | 300 | 2.6 | 8.7 | 0.00 | 0.00 | 0.00 | 44 | 1007.1 |
| 20260503233203 | 49 | 300 | 2.6 | 5.2 | 0.00 | 0.00 | 0.00 | 44 | 1007.0 |
| 20260503232704 | 49 | 300 | 3.5 | 7.8 | 0.00 | 0.00 | 0.00 | 44 | 1006.8 |
| 20260503232203 | 50 | 300 | 4.3 | 10.4 | 0.00 | 0.00 | 0.00 | 44 | 1006.9 |
| 20260503231704 | 50 | 300 | 2.6 | 8.7 | 0.00 | 0.00 | 0.00 | 43 | 1006.9 |
| 20260503231204 | 50 | 300 | 2.6 | 8.7 | 0.00 | 0.00 | 0.00 | 43 | 1006.8 |
| 20260503230704 | 50 | 300 | 6.1 | 11.3 | 0.00 | 0.00 | 0.00 | 42 | 1006.7 |
| 20260503225704 | 50 | 300 | 3.5 | 13.0 | 0.00 | 0.00 | 0.00 | 42 | 1006.5 |
| 20260503225204 | 51 | 300 | 4.3 | 13.0 | 0.00 | 0.00 | 0.00 | 42 | 1006.4 |
| 20260503224704 | 51 | 300 | 5.2 | 11.3 | 0.00 | 0.00 | 0.00 | 42 | 1006.3 |
| 20260503224203 | 51 | 300 | 5.2 | 15.6 | 0.00 | 0.00 | 0.00 | 42 | 1006.3 |